,,PA_Meas_PMT16A,,PR_Meas_QMR101_102,,RH_Meas_QMH101,,SR_Meas_QMS101,,TA_Meas_QMH101,,GenWind,,GenWind,
time,status,PA,status,PR,status,RH,status,SR,status,TA,status,DirAvg,status,SpdAvg,
2015-12-26, 08:11:04,INVALID - VALUE NOT AVAILABLE,0,INVALID - VALUE NOT AVAILABLE,0,INVALID - VALUE NOT AVAILABLE,0,INVALID - VALUE NOT AVAILABLE,0,INVALID - VALUE NOT AVAILABLE,0,INVALID,360,INVALID,0,
2015-12-26, 08:26:04,VALID,919.306,VALID,0,VALID,100.012,VALID,84.3413,VALID,21.79,INVALID,360,INVALID,0,
2015-12-26, 08:42:04,VALID,919.521,VALID,0,VALID,88.7975,VALID,112.491,VALID,22.4128,VALID,119,VALID,0,
2015-12-26, 08:43:04,VALID,919.511,VALID,0,VALID,88.6984,VALID,128.177,VALID,22.4518,VALID,119,VALID,0,
2015-12-26, 08:44:04,VALID,919.507,VALID,0,VALID,86.1446,VALID,138.169,VALID,22.5103,VALID,119,VALID,0,
2015-12-26, 08:45:04,VALID,919.513,VALID,0,VALID,84.6657,VALID,143.971,VALID,22.5884,VALID,119,VALID,0,
2015-12-26, 08:46:04,VALID,919.509,VALID,0,VALID,84.5056,VALID,156.327,VALID,22.6665,VALID,119,VALID,0,
2015-12-26, 08:47:04,VALID,919.527,VALID,0,VALID,84.3683,VALID,163.633,VALID,22.7836,VALID,120,VALID,0,
2015-12-26, 08:48:04,VALID,919.496,VALID,0,VALID,83.4612,VALID,162.129,VALID,22.7836,VALID,150,VALID,0,
2015-12-26, 08:49:04,VALID,919.497,VALID,0,VALID,85.1993,VALID,157.401,VALID,22.8226,VALID,128,VALID,0,
2015-12-26, 08:50:04,VALID,919.525,VALID,0,VALID,83.8728,VALID,154.608,VALID,22.8226,VALID,121,VALID,0,
2015-12-26, 08:51:04,VALID,919.509,VALID,0,VALID,82.9275,VALID,158.368,VALID,22.8421,VALID,159,VALID,0,
2015-12-26, 08:52:04,VALID,919.513,VALID,0,VALID,82.1347,VALID,169.22,VALID,22.8226,VALID,149,VALID,0,
2015-12-26, 08:53:04,VALID,919.507,VALID,0,VALID,82.2643,VALID,196.51,VALID,22.7836,VALID,139,VALID,0,
2015-12-26, 08:54:04,VALID,919.517,VALID,0,VALID,81.6315,VALID,205.75,VALID,22.7853,VALID,64,VALID,0,
2015-12-26, 08:55:04,VALID,919.513,VALID,0,VALID,84.719,VALID,219.932,VALID,22.8031,VALID,71,VALID,0,
2015-12-26, 08:56:04,VALID,919.53,VALID,0,VALID,81.1284,VALID,231.858,VALID,22.7641,VALID,134,VALID,0,
2015-12-26, 08:57:04,VALID,919.497,VALID,0,VALID,82.0432,VALID,228.742,VALID,22.8226,VALID,130,VALID,0,
2015-12-26, 08:58:04,VALID,919.52,VALID,0,VALID,80.6862,VALID,210.692,VALID,22.8243,VALID,121,VALID,0,
2015-12-26, 08:59:04,VALID,919.557,VALID,0,VALID,80.8844,VALID,195.328,VALID,22.8226,VALID,146,VALID,0,
2015-12-26, 09:00:04,VALID,919.531,VALID,0,VALID,82.5692,VALID,186.733,VALID,22.9007,VALID,115,VALID,0,
2015-12-26, 09:01:04,VALID,919.542,VALID,0,VALID,82.6455,VALID,189.956,VALID,22.938,VALID,115,VALID,0,
2015-12-26, 09:02:04,VALID,919.564,VALID,0,VALID,81.6849,VALID,207.791,VALID,22.9592,VALID,116,VALID,0,
2015-12-26, 09:03:04,VALID,919.571,VALID,0,VALID,83.5145,VALID,236.908,VALID,23.0178,VALID,115,VALID,0,
2015-12-26, 09:04:04,VALID,919.583,VALID,0,VALID,80.7548,VALID,271.504,VALID,22.9983,VALID,121,VALID,0.0496094,
2015-12-26, 09:05:04,VALID,919.549,VALID,0,VALID,80.6176,VALID,303.736,VALID,22.9787,VALID,97,VALID,0,
2015-12-26, 09:06:04,VALID,919.563,VALID,0,VALID,81.6163,VALID,347.68,VALID,23.0763,VALID,120,VALID,0,
2015-12-26, 09:07:04,VALID,919.596,VALID,0,VALID,80.5948,VALID,404.194,VALID,23.1136,VALID,98,VALID,0,
2015-12-26, 09:08:04,VALID,919.59,VALID,0,VALID,79.0624,VALID,408.921,VALID,23.1739,VALID,130,VALID,0,
2015-12-26, 09:09:04,VALID,919.572,VALID,0,VALID,80.0154,VALID,404.623,VALID,23.3869,VALID,128,VALID,0,
2015-12-26, 09:10:04,VALID,919.601,VALID,0,VALID,77.8198,VALID,342.2,VALID,23.6034,VALID,117,VALID,0.814062,
2015-12-26, 09:11:04,VALID,919.629,VALID,0,VALID,77.21,VALID,325.009,VALID,23.7596,VALID,50,VALID,1.5418,
2015-12-26, 09:12:04,VALID,919.615,VALID,0,VALID,77.149,VALID,361.754,VALID,23.7596,VALID,48,VALID,0.191016,
2015-12-26, 09:13:04,VALID,919.607,VALID,0,VALID,75.6472,VALID,361.754,VALID,23.7596,VALID,31,VALID,0,
2015-12-26, 09:14:04,VALID,919.62,VALID,0,VALID,76.1732,VALID,399.466,VALID,23.8181,VALID,50,VALID,0,
2015-12-26, 09:15:04,VALID,919.64,VALID,0,VALID,75.3346,VALID,372.176,VALID,23.9353,VALID,50,VALID,0,
2015-12-26, 09:16:04,VALID,919.634,VALID,0,VALID,75.7005,VALID,341.448,VALID,24.2086,VALID,49,VALID,0,
2015-12-26, 09:17:04,VALID,919.626,VALID,0,VALID,74.0767,VALID,324.902,VALID,24.4411,VALID,49,VALID,0,
2015-12-26, 09:18:04,VALID,919.633,VALID,0,VALID,76.5467,VALID,305.025,VALID,24.8121,VALID,55,VALID,0.58125,
2015-12-26, 09:19:04,VALID,919.635,VALID,0,VALID,72.1175,VALID,292.67,VALID,25.0855,VALID,33,VALID,0,
2015-12-26, 09:20:04,VALID,919.633,VALID,0,VALID,70.6538,VALID,298.257,VALID,25.478,VALID,33,VALID,0,
2015-12-26, 09:21:04,VALID,919.659,VALID,0,VALID,70.0821,VALID,302.017,VALID,25.7515,VALID,27,VALID,0,
2015-12-26, 09:22:04,VALID,919.639,VALID,0,VALID,69.7848,VALID,322.646,VALID,26.0836,VALID,27,VALID,0,
2015-12-26, 09:23:04,VALID,919.64,VALID,0,VALID,66.6515,VALID,342.415,VALID,26.3551,VALID,47,VALID,0,
2015-12-26, 09:24:04,VALID,919.622,VALID,0,VALID,67.7341,VALID,273.867,VALID,26.3746,VALID,70,VALID,0,
2015-12-26, 09:25:04,VALID,919.668,VALID,0,VALID,69.5332,VALID,228.957,VALID,26.2965,VALID,55,VALID,0,
2015-12-26, 09:26:04,VALID,919.664,VALID,0,VALID,67.4444,VALID,223.048,VALID,26.0621,VALID,38,VALID,0.00585938,
2015-12-26, 09:27:04,VALID,919.661,VALID,0,VALID,71.1112,VALID,242.71,VALID,25.6109,VALID,3,VALID,0,
2015-12-26, 09:28:04,VALID,919.665,VALID,0,VALID,72.1785,VALID,279.992,VALID,25.2203,VALID,22,VALID,0.0605469,
2015-12-26, 09:29:04,VALID,919.686,VALID,0,VALID,71.1189,VALID,332.423,VALID,24.9878,VALID,28,VALID,0.433203,
2015-12-26, 09:30:04,VALID,919.655,VALID,0,VALID,71.6067,VALID,353.159,VALID,24.7535,VALID,40,VALID,0,
2015-12-26, 09:31:04,VALID,919.632,VALID,0,VALID,72.9637,VALID,344.564,VALID,24.5582,VALID,37,VALID,0.0015625,
2015-12-26, 09:32:04,VALID,919.612,VALID,0,VALID,73.0247,VALID,297.29,VALID,24.402,VALID,356,VALID,0.695703,
2015-12-26, 09:33:04,VALID,919.636,VALID,0,VALID,73.7947,VALID,280.851,VALID,24.2263,VALID,2,VALID,0.146094,
2015-12-26, 09:34:04,VALID,919.62,VALID,0,VALID,75.9597,VALID,281.066,VALID,24.111,VALID,12,VALID,0.276172,
2015-12-26, 09:35:04,VALID,919.612,VALID,0,VALID,76.6306,VALID,284.397,VALID,23.9902,VALID,25,VALID,0.00351562,
2015-12-26, 09:36:04,VALID,919.607,VALID,0,VALID,74.7476,VALID,275.801,VALID,23.9725,VALID,14,VALID,0.0289063,
2015-12-26, 09:37:04,VALID,919.625,VALID,0,VALID,74.6104,VALID,254.421,VALID,23.953,VALID,1,VALID,0.00195313,
2015-12-26, 09:38:04,VALID,919.604,VALID,0,VALID,76.6763,VALID,248.941,VALID,23.9316,VALID,359,VALID,0.816016,
2015-12-26, 09:39:04,VALID,919.6,VALID,0,VALID,75.6777,VALID,258.181,VALID,23.9512,VALID,346,VALID,0,
2015-12-26, 09:40:04,VALID,919.595,VALID,0,VALID,76.783,VALID,253.239,VALID,23.9707,VALID,346,VALID,0,
2015-12-26, 09:41:04,VALID,919.606,VALID,0,VALID,75.2584,VALID,237.23,VALID,23.9902,VALID,28,VALID,0,
2015-12-26, 09:42:04,VALID,919.567,VALID,0,VALID,76.2799,VALID,220.899,VALID,23.9121,VALID,34,VALID,0,
2015-12-26, 09:43:04,VALID,919.596,VALID,0,VALID,76.4934,VALID,211.444,VALID,23.9707,VALID,36,VALID,0,
2015-12-26, 09:44:04,VALID,919.627,VALID,0,VALID,74.435,VALID,210.8,VALID,24.0488,VALID,351,VALID,0,
2015-12-26, 09:45:04,VALID,919.623,VALID,0,VALID,75.1898,VALID,216.816,VALID,24.0683,VALID,351,VALID,0,
2015-12-26, 09:46:04,VALID,919.614,VALID,0,VALID,77.149,VALID,227.345,VALID,24.1677,VALID,351,VALID,0,
2015-12-26, 09:47:04,VALID,919.63,VALID,0,VALID,75.0449,VALID,238.842,VALID,24.1659,VALID,5,VALID,0,
2015-12-26, 09:48:04,VALID,919.632,VALID,0,VALID,76.3485,VALID,241.098,VALID,24.2245,VALID,354,VALID,0,
2015-12-26, 09:49:04,VALID,919.628,VALID,0,VALID,73.909,VALID,229.387,VALID,24.1677,VALID,348,VALID,0,
2015-12-26, 09:50:04,VALID,919.597,VALID,0,VALID,77.5301,VALID,213.486,VALID,24.0097,VALID,348,VALID,0,
2015-12-26, 09:51:04,VALID,919.596,VALID,0,VALID,76.7525,VALID,198.121,VALID,23.8926,VALID,346,VALID,0,
2015-12-26, 09:52:04,VALID,919.556,VALID,0,VALID,76.2113,VALID,184.476,VALID,23.756,VALID,355,VALID,2.075,
2015-12-26, 09:53:04,VALID,919.565,VALID,0,VALID,77.3014,VALID,178.567,VALID,23.6193,VALID,24,VALID,0.102344,
2015-12-26, 09:54:04,VALID,919.565,VALID,0,VALID,79.436,VALID,180.179,VALID,23.6388,VALID,18,VALID,0,
2015-12-26, 09:55:04,VALID,919.561,VALID,0,VALID,77.3014,VALID,187.807,VALID,23.6388,VALID,18,VALID,0,
2015-12-26, 09:56:04,VALID,919.533,VALID,0,VALID,79.5885,VALID,203.064,VALID,23.6974,VALID,16,VALID,0.786719,
2015-12-26, 09:57:04,VALID,919.53,VALID,0,VALID,77.0346,VALID,226.808,VALID,23.7169,VALID,18,VALID,0,
2015-12-26, 09:58:04,VALID,919.505,VALID,0,VALID,79.619,VALID,250.23,VALID,23.7578,VALID,17,VALID,0,
2015-12-26, 09:59:04,VALID,919.495,VALID,0,VALID,79.4589,VALID,255.602,VALID,23.8145,VALID,26,VALID,0,
2015-12-26, 10:00:04,VALID,919.494,VALID,0,VALID,78.5898,VALID,250.983,VALID,23.8731,VALID,19,VALID,0,
2015-12-26, 10:01:04,VALID,919.491,VALID,0,VALID,78.971,VALID,241.098,VALID,23.9707,VALID,31,VALID,0,
2015-12-26, 10:02:04,VALID,919.49,VALID,0,VALID,78.1476,VALID,229.279,VALID,24.1092,VALID,28,VALID,0,
2015-12-26, 10:03:04,VALID,919.466,VALID,0,VALID,76.5315,VALID,220.147,VALID,24.1873,VALID,28,VALID,0,
2015-12-26, 10:04:04,VALID,919.446,VALID,0,VALID,77.5835,VALID,216.816,VALID,24.2068,VALID,28,VALID,0,
2015-12-26, 10:05:04,VALID,919.44,VALID,0,VALID,76.4857,VALID,217.031,VALID,24.1464,VALID,28,VALID,0,
2015-12-26, 10:06:04,VALID,919.439,VALID,0,VALID,76.6306,VALID,216.816,VALID,23.9707,VALID,341,VALID,0.855078,
2015-12-26, 10:07:04,VALID,919.431,VALID,0,VALID,77.5683,VALID,208.328,VALID,23.7773,VALID,340,VALID,0,
2015-12-26, 10:08:04,VALID,919.41,VALID,0,VALID,78.9938,VALID,194.791,VALID,23.6193,VALID,11,VALID,0.873438,
2015-12-26, 10:09:04,VALID,919.37,VALID,0,VALID,79.1234,VALID,180.071,VALID,23.5412,VALID,333,VALID,0,
2015-12-26, 10:10:05,VALID,919.368,VALID,0,VALID,78.5136,VALID,166.319,VALID,23.5235,VALID,2,VALID,0.0398437,
2015-12-26, 10:11:04,VALID,919.391,VALID,0,VALID,78.5517,VALID,158.798,VALID,23.465,VALID,332,VALID,0.624219,
2015-12-26, 10:12:04,VALID,919.39,VALID,0,VALID,78.9405,VALID,157.401,VALID,23.3851,VALID,340,VALID,0.0121094,
2015-12-26, 10:13:04,VALID,919.357,VALID,0,VALID,79.497,VALID,160.732,VALID,23.3265,VALID,27,VALID,0.419922,
2015-12-26, 10:14:04,VALID,919.366,VALID,0,VALID,80.8235,VALID,166.319,VALID,23.2502,VALID,33,VALID,0.653516,
2015-12-26, 10:15:04,VALID,919.335,VALID,0,VALID,81.4486,VALID,172.443,VALID,23.2502,VALID,46,VALID,0,
2015-12-26, 10:16:04,VALID,919.348,VALID,0,VALID,80.5871,VALID,174.914,VALID,23.2502,VALID,38,VALID,0,
2015-12-26, 10:17:04,VALID,919.358,VALID,0,VALID,80.427,VALID,173.088,VALID,23.1722,VALID,47,VALID,1.29414,
2015-12-26, 10:18:04,VALID,919.4,VALID,0,VALID,80.7091,VALID,172.013,VALID,23.1136,VALID,23,VALID,0,
2015-12-26, 10:19:04,VALID,919.357,VALID,0,VALID,80.5261,VALID,171.798,VALID,23.0746,VALID,38,VALID,0,
2015-12-26, 10:20:04,VALID,919.36,VALID,0,VALID,81.6239,VALID,176.311,VALID,23.0356,VALID,38,VALID,0,
2015-12-26, 10:21:04,VALID,919.342,VALID,0,VALID,81.601,VALID,184.047,VALID,23.016,VALID,41,VALID,0,
2015-12-26, 10:22:04,VALID,919.386,VALID,0,VALID,80.3432,VALID,191.782,VALID,22.9167,VALID,37,VALID,0,
2015-12-26, 10:23:04,VALID,919.358,VALID,0,VALID,81.5248,VALID,195.113,VALID,22.9185,VALID,37,VALID,0,
2015-12-26, 10:24:04,VALID,919.377,VALID,0,VALID,82.6912,VALID,194.576,VALID,22.977,VALID,37,VALID,0,
2015-12-26, 10:25:04,VALID,919.354,VALID,0,VALID,82.1271,VALID,196.08,VALID,22.9965,VALID,57,VALID,0,
2015-12-26, 10:26:04,VALID,919.395,VALID,0,VALID,83.606,VALID,203.494,VALID,22.9965,VALID,28,VALID,0,
2015-12-26, 10:27:04,VALID,919.419,VALID,0,VALID,81.0979,VALID,216.709,VALID,22.9965,VALID,36,VALID,0,
2015-12-26, 10:28:04,VALID,919.428,VALID,0,VALID,81.8679,VALID,232.61,VALID,22.9753,VALID,36,VALID,0,
2015-12-26, 10:29:04,VALID,919.404,VALID,0,VALID,81.4028,VALID,248.726,VALID,22.938,VALID,36,VALID,0,
2015-12-26, 10:30:04,VALID,919.388,VALID,0,VALID,80.5338,VALID,258.611,VALID,22.8794,VALID,70,VALID,0,
2015-12-26, 10:31:04,VALID,919.398,VALID,0,VALID,80.7396,VALID,262.156,VALID,22.8599,VALID,70,VALID,0,
2015-12-26, 10:32:04,VALID,919.374,VALID,0,VALID,81.845,VALID,266.024,VALID,22.8989,VALID,69,VALID,0,
2015-12-26, 10:33:04,VALID,919.387,VALID,0,VALID,81.5324,VALID,268.495,VALID,22.9575,VALID,54,VALID,0,
2015-12-26, 10:34:04,VALID,919.37,VALID,0,VALID,81.5705,VALID,268.281,VALID,23.0356,VALID,43,VALID,0.557031,
2015-12-26, 10:35:04,VALID,919.356,VALID,0,VALID,81.6163,VALID,269.355,VALID,23.1136,VALID,63,VALID,0,
2015-12-26, 10:36:04,VALID,919.387,VALID,0,VALID,82.31,VALID,277.306,VALID,23.2307,VALID,69,VALID,0,
2015-12-26, 10:37:04,VALID,919.348,VALID,0,VALID,81.9365,VALID,293.099,VALID,23.2502,VALID,131,VALID,0,
2015-12-26, 10:38:04,VALID,919.323,VALID,0,VALID,81.8374,VALID,304.058,VALID,23.3674,VALID,132,VALID,0,
2015-12-26, 10:39:04,VALID,919.348,VALID,0,VALID,81.3495,VALID,314.803,VALID,23.543,VALID,132,VALID,0,
2015-12-26, 10:40:04,VALID,919.306,VALID,0,VALID,80.1526,VALID,322.431,VALID,23.5608,VALID,132,VALID,0,
2015-12-26, 10:41:04,VALID,919.295,VALID,0,VALID,79.2759,VALID,324.15,VALID,23.6016,VALID,110,VALID,0.0210938,
2015-12-26, 10:42:04,VALID,919.3,VALID,0,VALID,81.2656,VALID,324.687,VALID,23.5608,VALID,78,VALID,0.177344,
2015-12-26, 10:43:04,VALID,919.272,VALID,0,VALID,81.9975,VALID,322.646,VALID,23.5626,VALID,54,VALID,1.22227,
2015-12-26, 10:44:04,VALID,919.289,VALID,0,VALID,81.6925,VALID,318.993,VALID,23.543,VALID,78,VALID,0.452734,
2015-12-26, 10:45:04,VALID,919.267,VALID,0,VALID,79.0015,VALID,314.265,VALID,23.5235,VALID,139,VALID,1.75859,
2015-12-26, 10:46:04,VALID,919.253,VALID,0,VALID,79.7714,VALID,315.77,VALID,23.3656,VALID,99,VALID,1.68047,
2015-12-26, 10:47:04,VALID,919.238,VALID,0,VALID,80.2212,VALID,319.423,VALID,23.3283,VALID,123,VALID,1.5,
2015-12-26, 10:48:04,VALID,919.223,VALID,0,VALID,80.8006,VALID,325.869,VALID,23.3461,VALID,144,VALID,0.916797,
2015-12-26, 10:49:04,VALID,919.227,VALID,0,VALID,79.8629,VALID,335.539,VALID,23.307,VALID,119,VALID,0.898828,
2015-12-26, 10:50:04,VALID,919.168,VALID,0,VALID,80.854,VALID,341.448,VALID,23.2893,VALID,104,VALID,2.50469,
2015-12-26, 10:51:04,VALID,919.21,VALID,0,VALID,80.4957,VALID,343.597,VALID,23.2307,VALID,67,VALID,2.66719,
2015-12-26, 10:52:04,VALID,919.171,VALID,0,VALID,82.2109,VALID,344.349,VALID,23.2094,VALID,93,VALID,1.21992,
2015-12-26, 10:53:04,VALID,919.181,VALID,0,VALID,82.2338,VALID,337.365,VALID,23.3283,VALID,108,VALID,0.373828,
2015-12-26, 10:54:04,VALID,919.187,VALID,0,VALID,82.1576,VALID,323.29,VALID,23.465,VALID,152,VALID,0.409766,
2015-12-26, 10:55:04,VALID,919.18,VALID,0,VALID,81.8221,VALID,303.629,VALID,23.5004,VALID,120,VALID,1.15039,
2015-12-26, 10:56:04,VALID,919.186,VALID,0,VALID,80.3661,VALID,282.785,VALID,23.543,VALID,133,VALID,0.716016,
2015-12-26, 10:57:04,VALID,919.201,VALID,0,VALID,80.6329,VALID,265.702,VALID,23.4028,VALID,108,VALID,2.15586,
2015-12-26, 10:58:04,VALID,919.118,VALID,0,VALID,80.9607,VALID,256.569,VALID,23.2112,VALID,69,VALID,3.29688,
2015-12-26, 10:59:04,VALID,919.219,VALID,0,VALID,81.4257,VALID,253.991,VALID,23.0533,VALID,119,VALID,1.9625,
2015-12-26, 11:00:04,VALID,919.221,VALID,0,VALID,82.8589,VALID,248.619,VALID,22.8582,VALID,80,VALID,2.09336,
2015-12-26, 11:01:04,VALID,919.218,VALID,0,VALID,83.2172,VALID,235.618,VALID,22.7021,VALID,108,VALID,1.77773,
2015-12-26, 11:02:04,VALID,919.218,VALID,0,VALID,83.8195,VALID,220.362,VALID,22.6435,VALID,112,VALID,0,
2015-12-26, 11:03:04,VALID,919.176,VALID,0,VALID,84.3683,VALID,205.857,VALID,22.6613,VALID,121,VALID,0.478906,
2015-12-26, 11:04:04,VALID,919.218,VALID,0,VALID,83.667,VALID,195.435,VALID,22.6435,VALID,112,VALID,1.51406,
2015-12-26, 11:05:04,VALID,919.224,VALID,0,VALID,84.1549,VALID,187.055,VALID,22.6418,VALID,87,VALID,1.83984,
2015-12-26, 11:06:04,VALID,919.177,VALID,0,VALID,83.6289,VALID,182.757,VALID,22.663,VALID,116,VALID,0,
2015-12-26, 11:07:04,VALID,919.227,VALID,0,VALID,83.1486,VALID,181.468,VALID,22.663,VALID,104,VALID,2.63281,
2015-12-26, 11:08:04,VALID,919.219,VALID,0,VALID,82.775,VALID,180.071,VALID,22.6435,VALID,96,VALID,1.25195,
2015-12-26, 11:09:04,VALID,919.22,VALID,0,VALID,83.3316,VALID,181.683,VALID,22.663,VALID,114,VALID,0.20625,
2015-12-26, 11:10:04,VALID,919.224,VALID,0,VALID,83.8042,VALID,187.162,VALID,22.7021,VALID,136,VALID,0,
2015-12-26, 11:11:04,VALID,919.198,VALID,0,VALID,83.3316,VALID,191.46,VALID,22.7623,VALID,111,VALID,0,
2015-12-26, 11:12:04,VALID,919.17,VALID,0,VALID,84.2311,VALID,194.361,VALID,22.7606,VALID,125,VALID,0.0195313,
2015-12-26, 11:13:04,VALID,919.16,VALID,0,VALID,83.4154,VALID,197.477,VALID,22.8174,VALID,171,VALID,1.1707,
2015-12-26, 11:14:04,VALID,919.159,VALID,0,VALID,82.6455,VALID,200.808,VALID,22.8972,VALID,193,VALID,0.284375,
2015-12-26, 11:15:04,VALID,919.171,VALID,0,VALID,82.1271,VALID,204.031,VALID,22.9362,VALID,192,VALID,0,
2015-12-26, 11:16:04,VALID,919.18,VALID,0,VALID,81.197,VALID,204.675,VALID,22.9185,VALID,132,VALID,1.93477,
2015-12-26, 11:17:04,VALID,919.189,VALID,0,VALID,82.5616,VALID,205.32,VALID,22.8404,VALID,130,VALID,1.31328,
2015-12-26, 11:18:04,VALID,919.202,VALID,0,VALID,82.3176,VALID,211.014,VALID,22.8387,VALID,116,VALID,0.00195313,
2015-12-26, 11:19:04,VALID,919.213,VALID,0,VALID,82.5616,VALID,222.833,VALID,22.9167,VALID,121,VALID,1.19023,
2015-12-26, 11:20:04,VALID,919.221,VALID,0,VALID,83.0495,VALID,240.024,VALID,22.8777,VALID,142,VALID,1.76211,
2015-12-26, 11:21:04,VALID,919.172,VALID,0,VALID,82.7827,VALID,253.669,VALID,22.7996,VALID,152,VALID,1.59336,
2015-12-26, 11:22:04,VALID,919.188,VALID,0,VALID,84.3455,VALID,265.272,VALID,22.7996,VALID,147,VALID,0.125,
2015-12-26, 11:23:04,VALID,919.207,VALID,0,VALID,83.7966,VALID,283.43,VALID,22.7801,VALID,123,VALID,0.707422,
2015-12-26, 11:24:04,VALID,919.119,VALID,0,VALID,82.3786,VALID,313.191,VALID,22.8014,VALID,129,VALID,1.78242,
2015-12-26, 11:25:04,VALID,919.105,VALID,0,VALID,84.132,VALID,335.539,VALID,22.7818,VALID,122,VALID,1.43359,
2015-12-26, 11:26:04,VALID,919.106,VALID,0,VALID,82.3558,VALID,336.935,VALID,22.7606,VALID,135,VALID,0.369141,
2015-12-26, 11:27:04,VALID,919.055,VALID,0,VALID,83.1943,VALID,314.158,VALID,22.8174,VALID,98,VALID,0,
2015-12-26, 11:28:04,VALID,919.064,VALID,0,VALID,82.1271,VALID,286.438,VALID,23.0551,VALID,111,VALID,1.39453,
2015-12-26, 11:29:04,VALID,919.009,VALID,0,VALID,80.5338,VALID,261.297,VALID,22.977,VALID,128,VALID,0.834766,
2015-12-26, 11:30:04,VALID,918.987,VALID,0,VALID,82.3863,VALID,243.354,VALID,22.9557,VALID,122,VALID,0.028125,
2015-12-26, 11:31:04,VALID,918.977,VALID,0,VALID,82.8055,VALID,233.04,VALID,22.9735,VALID,113,VALID,0,
2015-12-26, 11:32:04,VALID,918.944,VALID,0,VALID,80.427,VALID,225.626,VALID,22.954,VALID,152,VALID,1.47383,
2015-12-26, 11:33:04,VALID,918.901,VALID,0,VALID,80.549,VALID,224.23,VALID,22.915,VALID,154,VALID,0.110156,
2015-12-26, 11:34:04,VALID,918.919,VALID,0,VALID,80.8844,VALID,226.486,VALID,23.0568,VALID,157,VALID,0.512109,
2015-12-26, 11:35:04,VALID,918.878,VALID,0,VALID,81.6163,VALID,238.842,VALID,23.1331,VALID,126,VALID,0,
2015-12-26, 11:36:04,VALID,918.835,VALID,0,VALID,80.8692,VALID,262.801,VALID,23.1899,VALID,122,VALID,0.364844,
2015-12-26, 11:37:04,VALID,918.836,VALID,0,VALID,81.7001,VALID,297.075,VALID,23.2875,VALID,99,VALID,0.442187,
2015-12-26, 11:38:04,VALID,918.819,VALID,0,VALID,81.0826,VALID,333.712,VALID,23.3265,VALID,81,VALID,0.139062,
2015-12-26, 11:39:04,VALID,918.83,VALID,0,VALID,80.8692,VALID,367.556,VALID,23.465,VALID,83,VALID,0.0253906,
2015-12-26, 11:40:04,VALID,918.841,VALID,0,VALID,79.8019,VALID,408.384,VALID,23.3851,VALID,102,VALID,1.29727,
2015-12-26, 11:41:04,VALID,918.746,VALID,0,VALID,79.253,VALID,407.739,VALID,23.3461,VALID,105,VALID,2.40195,
2015-12-26, 11:42:04,VALID,918.829,VALID,0,VALID,79.2912,VALID,407.309,VALID,23.3461,VALID,178,VALID,0.610547,
2015-12-26, 11:43:04,VALID,918.823,VALID,0,VALID,79.3521,VALID,442.335,VALID,23.4046,VALID,115,VALID,0.694531,
2015-12-26, 11:44:04,VALID,918.813,VALID,0,VALID,77.736,VALID,540.966,VALID,23.4827,VALID,139,VALID,1.42109,
2015-12-26, 11:45:04,VALID,918.795,VALID,0,VALID,77.6369,VALID,600.596,VALID,23.5217,VALID,163,VALID,2.12656,
2015-12-26, 11:46:04,VALID,918.812,VALID,0,VALID,80.1678,VALID,466.402,VALID,23.6779,VALID,110,VALID,0.911719,
2015-12-26, 11:47:04,VALID,918.779,VALID,0,VALID,78.4297,VALID,470.807,VALID,23.834,VALID,149,VALID,1.42539,
2015-12-26, 11:48:04,VALID,918.751,VALID,0,VALID,77.675,VALID,468.443,VALID,23.9884,VALID,180,VALID,0.0382813,
2015-12-26, 11:49:04,VALID,918.765,VALID,0,VALID,75.3575,VALID,480.584,VALID,24.2031,VALID,188,VALID,0,
2015-12-26, 11:50:04,VALID,918.77,VALID,0,VALID,76.1046,VALID,840.082,VALID,24.2635,VALID,138,VALID,1.49609,
2015-12-26, 11:51:04,VALID,918.736,VALID,0,VALID,76.0207,VALID,643.68,VALID,24.283,VALID,136,VALID,1.83984,
2015-12-26, 11:52:04,VALID,918.741,VALID,0,VALID,75.8301,VALID,944.837,VALID,24.3983,VALID,129,VALID,0,
2015-12-26, 11:53:04,VALID,918.729,VALID,0,VALID,74.3817,VALID,842.446,VALID,24.4587,VALID,108,VALID,0.0527344,
2015-12-26, 11:54:04,VALID,918.695,VALID,0,VALID,75.0068,VALID,449.104,VALID,24.5155,VALID,58,VALID,2.09141,
2015-12-26, 11:55:04,VALID,918.755,VALID,0,VALID,73.6041,VALID,427.831,VALID,24.5155,VALID,157,VALID,0.896094,
2015-12-26, 11:56:04,VALID,918.753,VALID,0,VALID,72.9866,VALID,423.963,VALID,24.5759,VALID,173,VALID,0,
2015-12-26, 11:57:04,VALID,918.74,VALID,0,VALID,72.9408,VALID,440.401,VALID,24.6149,VALID,183,VALID,0.362891,
2015-12-26, 11:58:04,VALID,918.793,VALID,0,VALID,72.613,VALID,460.385,VALID,24.6345,VALID,115,VALID,1.93672,
2015-12-26, 11:59:04,VALID,918.781,VALID,0,VALID,73.1238,VALID,477.576,VALID,24.4197,VALID,163,VALID,0.801172,
2015-12-26, 12:00:04,VALID,918.77,VALID,0,VALID,74.2902,VALID,502.825,VALID,24.4978,VALID,77,VALID,0.00429688,
2015-12-26, 12:01:04,VALID,918.725,VALID,0,VALID,71.6754,VALID,619.076,VALID,24.7497,VALID,195,VALID,1.86836,
2015-12-26, 12:02:04,VALID,918.752,VALID,0,VALID,70.6614,VALID,926.895,VALID,24.8492,VALID,243,VALID,0.272266,
2015-12-26, 12:03:04,VALID,918.719,VALID,0,VALID,70.5776,VALID,925.068,VALID,24.8102,VALID,147,VALID,0,
2015-12-26, 12:04:04,VALID,918.656,VALID,0,VALID,71.5839,VALID,1108.36,VALID,24.9059,VALID,251,VALID,0.144141,
2015-12-26, 12:05:04,VALID,918.677,VALID,0,VALID,70.3031,VALID,927.11,VALID,25.1812,VALID,178,VALID,0.824609,
2015-12-26, 12:06:04,VALID,918.639,VALID,0,VALID,70.1812,VALID,978.789,VALID,25.4351,VALID,175,VALID,0.617188,
2015-12-26, 12:07:04,VALID,918.651,VALID,0,VALID,67.3834,VALID,617.572,VALID,25.6109,VALID,212,VALID,2.03398,
2015-12-26, 12:08:04,VALID,918.666,VALID,0,VALID,68.7937,VALID,573.951,VALID,25.648,VALID,198,VALID,0.108203,
2015-12-26, 12:09:04,VALID,918.654,VALID,0,VALID,67.2385,VALID,560.091,VALID,25.728,VALID,177,VALID,1.70586,
2015-12-26, 12:10:04,VALID,918.635,VALID,0,VALID,69.4493,VALID,482.088,VALID,25.7261,VALID,138,VALID,0.356641,
2015-12-26, 12:11:04,VALID,918.608,VALID,0,VALID,68.3287,VALID,903.043,VALID,25.5913,VALID,42,VALID,2.7332,
2015-12-26, 12:12:04,VALID,918.628,VALID,0,VALID,70.2574,VALID,627.564,VALID,25.648,VALID,2,VALID,0.490625,
2015-12-26, 12:13:04,VALID,918.581,VALID,0,VALID,66.6973,VALID,522.379,VALID,25.8042,VALID,45,VALID,0.0890625,
2015-12-26, 12:14:04,VALID,918.56,VALID,0,VALID,68.4125,VALID,1162.51,VALID,25.7671,VALID,33,VALID,0,
2015-12-26, 12:15:04,VALID,918.549,VALID,0,VALID,69.1291,VALID,547.628,VALID,25.9409,VALID,33,VALID,0.238672,
2015-12-26, 12:16:04,VALID,918.522,VALID,0,VALID,66.1103,VALID,520.66,VALID,26.2925,VALID,69,VALID,0,
2015-12-26, 12:17:04,VALID,918.498,VALID,0,VALID,66.5372,VALID,1057.87,VALID,26.4097,VALID,19,VALID,2.24102,
2015-12-26, 12:18:04,VALID,918.438,VALID,0,VALID,69.0681,VALID,584.91,VALID,26.273,VALID,23,VALID,2.13789,
2015-12-26, 12:19:04,VALID,918.455,VALID,0,VALID,68.5116,VALID,393.879,VALID,26.1753,VALID,71,VALID,1.5,